sat.trackr.live / text

‹ back to catalog

STARLINK-11188 [DTC]

NORAD 60722 · 2024-152C

PAYLOAD ACTIVE UNKNOWN

§ Identity

Operator
Country
US
Launch date
2024-08-28
Launch site
AFETR
Launch vehicle
Mass (kg)
RCS (m²)

Purposes: comms

External: N2YO · Heavens-Above · Gunter

§ Orbital elements

Epoch: 2026-09-21T06:58:12.566208Z

Period
91.74 min
Inclination
53.1570°
Eccentricity
0.0000945
Mean motion
15.69709242 rev/d
Perigee alt
359.1 km
Apogee alt
360.4 km
Semi-major
6,737.9 km
B*
5.0995e-6
RAAN
232.2183°
Arg perigee
77.9523°
Mean anomaly
282.1601°
Rev number
11,967

§ Raw data

STARLINK-11188 [DTC]1 60722U 24152C   26264.29042322  .00000029  00000+0  50995-5 0  99982 60722  53.1570 232.2183 0000945  77.9523 282.1601 15.69709242119671

JSON: /api/v1/satellites/60722 · /tle

For live sub-satellite position, see the globe view (requires WebGL).

§ Visibility from observer

Set your observer location to see the next 7 days of passes ≥ 10°. The values pass through the URL so the page stays shareable.

No JS? Fill the form by hand. The geolocation button needs JavaScript.